Weather in Simakovo

Russia / Ivanovo Oblast     56°52′21″N   42°45′58″E
В апреле 2022 года жителям России запретили посещать сайт meteo.paraplan.net по решению Генеральной прокуратуры. Аудитория сайта уменьшилась в 10 раз. Владельцы сайта не видят смысла в поддержке погодного сервера в таких условиях. Сайт будет закрыт в октябре.
temp.,
°C
wind,
m/s
gust,
m/s
humid.,
%
clouds,
%
prec.,
mm/h
press.,
hPa
HPBL,
m
3 october, mon
mon300:00+11e2493100 0.0 100680
03:00+12ese31096100 0.0 1005286
06:00+13e4999100 0.1 1004237
09:00+15ese51589100 0.6 1004687
12:00+18se61466100 0.0 10041041
15:00+17sse71660100 0.0 10041484
18:00+14sse71474100 0.0 10071173
21:00+12s51178100 0.3 1010972
4 october, tue
tue400:00+10s412784 0.0 1012670
03:00+9se413835 0.0 1013508
06:00+9sse413837 0.0 1014478
09:00+11sse5137244 0.0 1015709
12:00+15sse61259100 0.0 10151283
15:00+16sse511576 0.0 10151460
18:00+12sse51379100 0.5 1015743
21:00+12sse5128495 0.9 1015527
5 october, wed
wed500:00+11sse51289100 0.3 1014757
03:00+11sse51290100 1.1 1014637
06:00+10sse51193100 0.4 1014622
09:00+11s51182100 1.9 10141358
12:00+9s51084100 0.9 10141405
15:00+9s4985100 1.1 1013890
18:00+8s3791100 0.7 1013438
21:00+7sw3689100 2.3 1013805
6 october, thu
thu600:00+6sw3590100 0.9 1013792
03:00+6wsw3691100 2.2 1014482
06:00+6w3790100 0.6 1014555
09:00+7w36826 0.6 1015505
12:00+9w3467100 0.0 10151165
15:00+9wsw357163 0.1 1015711
18:00+6ssw25865 0.0 1015108
21:00+5ssw289227 0.0 1014196
7 october, fri
fri700:00+6ssw41094100 0.6 1011432
03:00+8sw41198100 0.9 1010499
06:00+10w411896 0.3 1010642
09:00+9w51084100 0.4 10121031
12:00+11w61174100 0.1 10131324
15:00+9w6128099 0.1 10131132
18:00+10w6147632 0.1 10141128
21:00+9w614822 0.3 1016991